• în Republica Moldova
  • Lista ţărilor
  • Pe 7 zile
  • Temperatura apei
  • Hartă satelitară
  • Meteo pe hartă
  • Widget-uri
  • user-avatar
    Intrare

    Meteo pe oră la Salzburg

    Astăzi, 25 Martie, Sâmbătă

    Timp Temperatura Precipitaţii Vânt Presiune Umiditate
    00:00 -1°C° 0 mm 1 m/s 629 mmHg 96%
    01:00 -3°C° 0 mm 1 m/s 628 mmHg 98%
    02:00 -3°C° 0 mm 1 m/s 628 mmHg 97%
    03:00 -3°C° 0 mm 1 m/s 628 mmHg 96%
    04:00 -3°C° 0 mm 1 m/s 628 mmHg 96%
    05:00 -2°C° 0 mm 1 m/s 628 mmHg 95%
    06:00 -1°C° 0 mm 1 m/s 628 mmHg 95%
    07:00 +1°C° 0 mm 1 m/s 629 mmHg 90%
    08:00 +2°C° 0 mm 1 m/s 629 mmHg 87%
    09:00 +4°C° 0 mm 1 m/s 630 mmHg 85%
    10:00 +4°C° 0 mm 2 m/s 630 mmHg 82%
    11:00 +5°C° 0 mm 2 m/s 630 mmHg 80%
    12:00 +6°C° 0 mm 2 m/s 630 mmHg 79%
    13:00 +6°C° 0 mm 2 m/s 630 mmHg 75%
    14:00 +6°C° 0 mm 2 m/s 630 mmHg 77%
    15:00 +6°C° 0 mm 2 m/s 629 mmHg 79%
    16:00 +6°C° 0 mm 2 m/s 629 mmHg 81%
    17:00 +4°C° 0 mm 2 m/s 628 mmHg 86%
    18:00 +3°C° 0 mm 1 m/s 627 mmHg 91%
    19:00 +1°C° 0 mm 1 m/s 626 mmHg 96%
    20:00 +1°C° 0 mm 1 m/s 626 mmHg 96%
    21:00 +1°C° 0 mm 1 m/s 626 mmHg 96%
    22:00 0°C° 0 mm 1 m/s 626 mmHg 96%
    23:00 0°C° 0 mm 1 m/s 625 mmHg 95%

    Mâine, 26 Martie, Duminică

    Timp Temperatura Precipitaţii Vânt Presiune Umiditate
    00:00 0°C° 0 mm 1 m/s 625 mmHg 95%
    01:00 0°C° 0 mm 1 m/s 625 mmHg 95%
    02:00 -1°C° 0 mm 1 m/s 624 mmHg 95%
    03:00 -2°C° 0 mm 1 m/s 624 mmHg 95%
    04:00 -2°C° 0 mm 1 m/s 624 mmHg 95%
    05:00 -2°C° 0 mm 1 m/s 624 mmHg 94%
    06:00 -1°C° 0 mm 1 m/s 624 mmHg 93%
    07:00 0°C° 0 mm 1 m/s 625 mmHg 92%
    08:00 -1°C° 0 mm 2 m/s 625 mmHg 90%
    09:00 +1°C° 0 mm 2 m/s 626 mmHg 88%
    10:00 +2°C° 0 mm 2 m/s 626 mmHg 85%
    11:00 +2°C° 0,1 mm 2 m/s 627 mmHg 84%
    12:00 +2°C° 0,1 mm 2 m/s 627 mmHg 82%
    13:00 +1°C° 0,1 mm 3 m/s 627 mmHg 81%
    14:00 +2°C° 0,1 mm 2 m/s 627 mmHg 80%
    15:00 +2°C° 0,1 mm 2 m/s 627 mmHg 80%
    16:00 +2°C° 0,1 mm 2 m/s 627 mmHg 80%
    17:00 -1°C° 0 mm 2 m/s 627 mmHg 84%
    18:00 -2°C° 0 mm 2 m/s 627 mmHg 88%
    19:00 -2°C° 0 mm 1 m/s 627 mmHg 92%
    20:00 -3°C° 0 mm 1 m/s 627 mmHg 92%
    21:00 -4°C° 0 mm 1 m/s 627 mmHg 93%
    22:00 -6°C° 0 mm 1 m/s 627 mmHg 93%
    23:00 -6°C° 0 mm 1 m/s 627 mmHg 93%

    Poimâine, 27 Martie, Luni

    Timp Temperatura Precipitaţii Vânt Presiune Umiditate
    00:00 -7°C° 0 mm 1 m/s 627 mmHg 92%
    01:00 -7°C° 0 mm 1 m/s 627 mmHg 92%
    02:00 -7°C° 0 mm 1 m/s 626 mmHg 91%
    03:00 -7°C° 0 mm 1 m/s 626 mmHg 90%
    04:00 -7°C° 0 mm 1 m/s 626 mmHg 90%
    05:00 -6°C° 0 mm 1 m/s 627 mmHg 86%
    06:00 -4°C° 0 mm 1 m/s 627 mmHg 82%
    07:00 -3°C° 0 mm 1 m/s 628 mmHg 78%
    08:00 -2°C° 0 mm 2 m/s 629 mmHg 70%
    09:00 +1°C° 0 mm 2 m/s 629 mmHg 62%
    10:00 +4°C° 0 mm 2 m/s 630 mmHg 54%
    11:00 +5°C° 0 mm 2 m/s 630 mmHg 51%
    12:00 +6°C° 0 mm 2 m/s 631 mmHg 48%
    13:00 +7°C° 0 mm 2 m/s 631 mmHg 46%
    14:00 +7°C° 0 mm 2 m/s 630 mmHg 48%
    15:00 +7°C° 0 mm 2 m/s 630 mmHg 50%
    16:00 +7°C° 0 mm 2 m/s 630 mmHg 53%
    17:00 +4°C° 0 mm 2 m/s 629 mmHg 61%
    18:00 +1°C° 0 mm 2 m/s 628 mmHg 70%
    19:00 -3°C° 0 mm 2 m/s 627 mmHg 78%
    20:00 -4°C° 0 mm 2 m/s 627 mmHg 76%
    21:00 -4°C° 0 mm 2 m/s 627 mmHg 75%
    22:00 -5°C° 0 mm 2 m/s 627 mmHg 73%
    23:00 -5°C° 0 mm 2 m/s 627 mmHg 71%

    28 Martie, Marţi

    Timp Temperatura Precipitaţii Vânt Presiune Umiditate
    00:00 -5°C° 0 mm 2 m/s 627 mmHg 70%
    01:00 -5°C° 0 mm 2 m/s 627 mmHg 68%
    02:00 -5°C° 0 mm 2 m/s 627 mmHg 67%
    03:00 -5°C° 0 mm 2 m/s 627 mmHg 65%
    04:00 -6°C° 0 mm 2 m/s 627 mmHg 64%
    05:00 -3°C° 0 mm 1 m/s 627 mmHg 62%
    06:00 -2°C° 0 mm 1 m/s 628 mmHg 59%
    07:00 -1°C° 0 mm 1 m/s 628 mmHg 57%
    08:00 +2°C° 0 mm 1 m/s 629 mmHg 55%
    09:00 +5°C° 0 mm 1 m/s 630 mmHg 53%
    10:00 +8°C° 0 mm 1 m/s 631 mmHg 51%
    11:00 +9°C° 0 mm 1 m/s 631 mmHg 52%
    12:00 +9°C° 0 mm 1 m/s 631 mmHg 53%
    13:00 +10°C° 0 mm 1 m/s 632 mmHg 53%
    14:00 +10°C° 0 mm 1 m/s 631 mmHg 57%
    15:00 +9°C° 0 mm 1 m/s 631 mmHg 61%
    16:00 +9°C° 0 mm 1 m/s 631 mmHg 64%
    17:00 +6°C° 0 mm 1 m/s 629 mmHg 75%
    18:00 +2°C° 0 mm 1 m/s 628 mmHg 85%
    19:00 -2°C° 0 mm 0 m/s 627 mmHg 95%
    20:00 -2°C° 0 mm 0 m/s 627 mmHg 95%
    21:00 -1°C° 0 mm 1 m/s 627 mmHg 95%
    22:00 -1°C° 0 mm 1 m/s 628 mmHg 96%
    23:00 -1°C° 0 mm 1 m/s 628 mmHg 96%

    29 Martie, Miercuri

    Timp Temperatura Precipitaţii Vânt Presiune Umiditate
    00:00 -1°C° 0 mm 1 m/s 628 mmHg 95%
    01:00 -1°C° 0 mm 1 m/s 628 mmHg 95%
    02:00 -1°C° 0 mm 1 m/s 628 mmHg 95%
    03:00 -1°C° 0 mm 1 m/s 628 mmHg 95%
    04:00 -1°C° 0 mm 1 m/s 628 mmHg 95%
    05:00 0°C° 0 mm 1 m/s 628 mmHg 94%
    06:00 +1°C° 0 mm 1 m/s 629 mmHg 93%
    07:00 +2°C° 0 mm 1 m/s 630 mmHg 92%
    08:00 +4°C° 0 mm 1 m/s 630 mmHg 83%
    09:00 +6°C° 0 mm 1 m/s 631 mmHg 73%
    10:00 +9°C° 0 mm 1 m/s 632 mmHg 64%
    11:00 +9°C° 0 mm 1 m/s 632 mmHg 62%
    12:00 +10°C° 0 mm 1 m/s 632 mmHg 59%
    13:00 +11°C° 0 mm 1 m/s 632 mmHg 57%
    14:00 +10°C° 0 mm 1 m/s 632 mmHg 59%
    15:00 +10°C° 0 mm 1 m/s 631 mmHg 62%
    16:00 +10°C° 0 mm 1 m/s 631 mmHg 65%
    17:00 +7°C° 0 mm 1 m/s 630 mmHg 74%
    18:00 +4°C° 0 mm 1 m/s 628 mmHg 84%
    19:00 +1°C° 0 mm 1 m/s 627 mmHg 94%
    20:00 -1°C° 0 mm 0 m/s 627 mmHg 95%
    21:00 -1°C° 0 mm 0 m/s 627 mmHg 96%
    22:00 -2°C° 0 mm 0 m/s 627 mmHg 96%
    23:00 -2°C° 0 mm 0 m/s 627 mmHg 96%

    30 Martie, Joi

    Timp Temperatura Precipitaţii Vânt Presiune Umiditate
    00:00 -2°C° 0 mm 0 m/s 627 mmHg 96%
    01:00 -2°C° 0 mm 0 m/s 627 mmHg 96%
    02:00 -2°C° 0 mm 0 m/s 627 mmHg 95%
    03:00 -2°C° 0 mm 0 m/s 627 mmHg 95%
    04:00 -2°C° 0 mm 0 m/s 627 mmHg 95%
    05:00 0°C° 0 mm 1 m/s 628 mmHg 93%
    06:00 +1°C° 0 mm 1 m/s 628 mmHg 90%
    07:00 +2°C° 0 mm 1 m/s 629 mmHg 88%
    08:00 +5°C° 0 mm 1 m/s 630 mmHg 79%
    09:00 +7°C° 0 mm 1 m/s 631 mmHg 70%
    10:00 +10°C° 0 mm 1 m/s 631 mmHg 60%
    11:00 +10°C° 0 mm 1 m/s 631 mmHg 57%
    12:00 +10°C° 0 mm 2 m/s 631 mmHg 54%
    13:00 +12°C° 0 mm 2 m/s 631 mmHg 51%
    14:00 +12°C° 0 mm 2 m/s 631 mmHg 53%
    15:00 +12°C° 0 mm 2 m/s 630 mmHg 55%
    16:00 +10°C° 0 mm 2 m/s 630 mmHg 57%
    17:00 +8°C° 0 mm 2 m/s 629 mmHg 68%
    18:00 +5°C° 0 mm 2 m/s 628 mmHg 78%
    19:00 +3°C° 0 mm 2 m/s 627 mmHg 89%
    20:00 +2°C° 0 mm 2 m/s 627 mmHg 89%
    21:00 +1°C° 0 mm 2 m/s 627 mmHg 89%
    22:00 +1°C° 0 mm 2 m/s 627 mmHg 89%
    23:00 +1°C° 0 mm 2 m/s 627 mmHg 89%
    Arată mai mult